owner,sensor,date,latitude,longitude,vertical_datum,direction_of_sea_water_velocity,sea_water_speed,upward_sea_water_velocity,qcFlag 
TABS,ioos:station:wmo:42048:1,2012-06-01T00:00:00Z,27.9396,-96.8429,2.0,41.08265224,14.07602927,-99999.0,'11111222,11111222,99999999' 
TABS,ioos:station:wmo:42048:1,2012-06-01T00:30:00Z,27.9396,-96.8429,2.0,41.32118548,16.75052238,-99999.0,'11111222,11111222,99999999' 
TABS,ioos:station:wmo:42048:1,2012-06-01T01:00:00Z,27.9396,-96.8429,2.0,33.99957721,18.49120061,-99999.0,'11111222,11111222,99999999' 
TABS,ioos:station:wmo:42048:1,2012-06-01T01:30:00Z,27.9396,-96.8429,2.0,35.63263923,16.85593071,-99999.0,'11111222,11111222,99999999' 
TABS,ioos:station:wmo:42048:1,2012-06-01T02:00:00Z,27.9396,-96.8429,2.0,25.27143546,15.64752057,-99999.0,'11111222,11111222,99999999' 
TABS,ioos:station:wmo:42048:1,2012-06-01T02:30:00Z,27.9396,-96.8429,2.0,33.38160805,12.35889963,-99999.0,'11111222,11111222,99999999' 
TABS,ioos:station:wmo:42048:1,2012-06-01T03:00:00Z,27.9396,-96.8429,2.0,26.03152298,13.44382386,-99999.0,'11111222,11111222,99999999' 
TABS,ioos:station:wmo:42048:1,2012-06-01T03:30:00Z,27.9396,-96.8429,2.0,18.01837566,12.60833455,-99999.0,'11111222,11111222,99999999' 
TABS,ioos:station:wmo:42048:1,2012-06-01T04:00:00Z,27.9396,-96.8429,2.0,18.91845538,19.49297309,-99999.0,'11111222,11111222,99999999' 
TABS,ioos:station:wmo:42048:1,2012-06-01T04:30:00Z,27.9396,-96.8429,2.0,7.084818439,17.59433147,-99999.0,'11111222,11111222,99999999' 
TABS,ioos:station:wmo:42048:1,2012-06-01T05:00:00Z,27.9396,-96.8429,2.0,34.02085331,17.30138723,-99999.0,'11111222,11111222,99999999' 
TABS,ioos:station:wmo:42048:1,2012-06-01T05:30:00Z,27.9396,-96.8429,2.0,15.44438734,13.81900141,-99999.0,'11111222,11111222,99999999' 
TABS,ioos:station:wmo:42048:1,2012-06-01T06:00:00Z,27.9396,-96.8429,2.0,17.06490886,14.41462105,-99999.0,'11111222,11111222,99999999' 
TABS,ioos:station:wmo:42048:1,2012-06-01T06:30:00Z,27.9396,-96.8429,2.0,6.634739429,19.56099435,-99999.0,'11111222,11111222,99999999' 
TABS,ioos:station:wmo:42048:1,2012-06-01T07:00:00Z,27.9396,-96.8429,2.0,13.53165559,21.19843626,-99999.0,'11111222,11111222,99999999' 
TABS,ioos:station:wmo:42048:1,2012-06-01T07:30:00Z,27.9396,-96.8429,2.0,1.318347812,16.08425628,-99999.0,'11111222,11111222,99999999' 
TABS,ioos:station:wmo:42048:1,2012-06-01T08:00:00Z,27.9396,-96.8429,2.0,8.503818668,16.70363134,-99999.0,'11111222,11111222,99999999' 
TABS,ioos:station:wmo:42048:1,2012-06-01T08:30:00Z,27.9396,-96.8429,2.0,8.318010934,19.42432753,-99999.0,'11111222,11111222,99999999' 
TABS,ioos:station:wmo:42048:1,2012-06-01T09:00:00Z,27.9396,-96.8429,2.0,9.997496615,18.66338662,-99999.0,'11111222,11111222,99999999' 
TABS,ioos:station:wmo:42048:1,2012-06-01T09:30:00Z,27.9396,-96.8429,2.0,19.46380812,18.84705017,-99999.0,'11111222,11111222,99999999' 
TABS,ioos:station:wmo:42048:1,2012-06-01T10:00:00Z,27.9396,-96.8429,2.0,18.40985354,14.34409286,-99999.0,'11111222,11111222,99999999' 
TABS,ioos:station:wmo:42048:1,2012-06-01T10:30:00Z,27.9396,-96.8429,2.0,25.76802118,12.21458554,-99999.0,'11111222,11111222,99999999' 
TABS,ioos:station:wmo:42048:1,2012-06-01T11:00:00Z,27.9396,-96.8429,2.0,27.00488592,15.15204277,-99999.0,'11111222,11111222,99999999' 
TABS,ioos:station:wmo:42048:1,2012-06-01T11:30:00Z,27.9396,-96.8429,2.0,40.23886828,14.05629041,-99999.0,'11111222,11111222,99999999' 
TABS,ioos:station:wmo:42048:1,2012-06-01T12:00:00Z,27.9396,-96.8429,2.0,28.85009803,8.973767325,-99999.0,'11133222,11111222,99999999' 
TABS,ioos:station:wmo:42048:1,2012-06-01T12:30:00Z,27.9396,-96.8429,2.0,29.05872741,13.97971745,-99999.0,'11111222,11111222,99999999' 
TABS,ioos:station:wmo:42048:1,2012-06-01T13:00:00Z,27.9396,-96.8429,2.0,23.71701826,13.50016667,-99999.0,'11111222,11111222,99999999' 
TABS,ioos:station:wmo:42048:1,2012-06-01T13:30:00Z,27.9396,-96.8429,2.0,27.87063842,13.34831825,-99999.0,'11111222,11111222,99999999' 
TABS,ioos:station:wmo:42048:1,2012-06-01T14:00:00Z,27.9396,-96.8429,2.0,37.60701045,13.68313195,-99999.0,'11111222,11111222,99999999' 
TABS,ioos:station:wmo:42048:1,2012-06-01T14:30:00Z,27.9396,-96.8429,2.0,26.59250916,9.382542299,-99999.0,'11133222,11111222,99999999' 
TABS,ioos:station:wmo:42048:1,2012-06-01T15:00:00Z,27.9396,-96.8429,2.0,43.16564049,13.91592253,-99999.0,'11111222,11111222,99999999' 
TABS,ioos:station:wmo:42048:1,2012-06-01T15:30:00Z,27.9396,-96.8429,2.0,34.84155014,9.662054647,-99999.0,'11133222,11111222,99999999' 
TABS,ioos:station:wmo:42048:1,2012-06-01T16:00:00Z,27.9396,-96.8429,2.0,59.93148749,13.17269904,-99999.0,'11111222,11111222,99999999' 
TABS,ioos:station:wmo:42048:1,2012-06-01T16:30:00Z,27.9396,-96.8429,2.0,41.83975099,11.54339638,-99999.0,'11111222,11111222,99999999' 
TABS,ioos:station:wmo:42048:1,2012-06-01T17:00:00Z,27.9396,-96.8429,2.0,45.58407233,12.48815439,-99999.0,'11111222,11111222,99999999' 
TABS,ioos:station:wmo:42048:1,2012-06-01T17:30:00Z,27.9396,-96.8429,2.0,29.43136304,13.59441062,-99999.0,'11111222,11111222,99999999' 
TABS,ioos:station:wmo:42048:1,2012-06-01T18:00:00Z,27.9396,-96.8429,2.0,48.08849435,13.51830241,-99999.0,'11111222,11111222,99999999' 
TABS,ioos:station:wmo:42048:1,2012-06-01T18:30:00Z,27.9396,-96.8429,2.0,52.30451,15.40559963,-99999.0,'11111222,11111222,99999999' 
TABS,ioos:station:wmo:42048:1,2012-06-01T19:00:00Z,27.9396,-96.8429,2.0,20.37959184,10.25168279,-99999.0,'11111222,11111222,99999999' 
TABS,ioos:station:wmo:42048:1,2012-06-01T19:30:00Z,27.9396,-96.8429,2.0,38.74960554,10.97590543,-99999.0,'11111222,11111222,99999999' 
TABS,ioos:station:wmo:42048:1,2012-06-01T20:00:00Z,27.9396,-96.8429,2.0,16.36555602,9.369615787,-99999.0,'11133222,11111222,99999999' 
TABS,ioos:station:wmo:42048:1,2012-06-01T20:30:00Z,27.9396,-96.8429,2.0,18.00945056,10.641358,-99999.0,'11111222,11111222,99999999' 
TABS,ioos:station:wmo:42048:1,2012-06-01T21:00:00Z,27.9396,-96.8429,2.0,356.0044317,10.90651182,-99999.0,'11111222,11111222,99999999' 
TABS,ioos:station:wmo:42048:1,2012-06-01T21:30:00Z,27.9396,-96.8429,2.0,3.847152418,10.43350852,-99999.0,'11111222,11111222,99999999' 
TABS,ioos:station:wmo:42048:1,2012-06-01T22:00:00Z,27.9396,-96.8429,2.0,8.812646183,9.856353281,-99999.0,'11133222,11111222,99999999' 
TABS,ioos:station:wmo:42048:1,2012-06-01T22:30:00Z,27.9396,-96.8429,2.0,7.304765261,12.26957619,-99999.0,'11111222,11111222,99999999' 
TABS,ioos:station:wmo:42048:1,2012-06-01T23:00:00Z,27.9396,-96.8429,2.0,10.12124631,11.15356445,-99999.0,'11111222,11111222,99999999' 
TABS,ioos:station:wmo:42048:1,2012-06-01T23:30:00Z,27.9396,-96.8429,2.0,348.6081013,9.568516081,-99999.0,'11133222,11111222,99999999' 
TABS,ioos:station:wmo:42048:1,2012-06-02T00:00:00Z,27.9396,-96.8429,2.0,354.3168398,8.381199198,-99999.0,'11133222,11111222,99999999' 
TABS,ioos:station:wmo:42048:1,2012-06-02T00:30:00Z,27.9396,-96.8429,2.0,4.27884713,9.516522474,-99999.0,'11133222,11111222,99999999' 
TABS,ioos:station:wmo:42048:1,2012-06-02T01:00:00Z,27.9396,-96.8429,2.0,7.702037475,10.59558399,-99999.0,'11111222,11111222,99999999' 
TABS,ioos:station:wmo:42048:1,2012-06-02T01:30:00Z,27.9396,-96.8429,2.0,15.10905034,7.903195556,-99999.0,'11133222,11111222,99999999' 
TABS,ioos:station:wmo:42048:1,2012-06-02T02:00:00Z,27.9396,-96.8429,2.0,24.60088682,6.653976255,-99999.0,'11133222,11111222,99999999' 
TABS,ioos:station:wmo:42048:1,2012-06-02T02:30:00Z,27.9396,-96.8429,2.0,33.4793329,5.275234592,-99999.0,'11133222,11111222,99999999' 
TABS,ioos:station:wmo:42048:1,2012-06-02T03:00:00Z,27.9396,-96.8429,2.0,7.790120089,8.336935888,-99999.0,'11133222,11111222,99999999' 
TABS,ioos:station:wmo:42048:1,2012-06-02T03:30:00Z,27.9396,-96.8429,2.0,30.04707951,9.646315359,-99999.0,'11133222,11111222,99999999' 
TABS,ioos:station:wmo:42048:1,2012-06-02T04:00:00Z,27.9396,-96.8429,2.0,25.71187278,10.81035152,-99999.0,'11111222,11111222,99999999' 
TABS,ioos:station:wmo:42048:1,2012-06-02T04:30:00Z,27.9396,-96.8429,2.0,8.139934663,8.40467132,-99999.0,'11133222,11111222,99999999' 
TABS,ioos:station:wmo:42048:1,2012-06-02T05:00:00Z,27.9396,-96.8429,2.0,18.03176764,9.433308009,-99999.0,'11133222,11111222,99999999' 
TABS,ioos:station:wmo:42048:1,2012-06-02T05:30:00Z,27.9396,-96.8429,2.0,22.39243852,10.26392712,-99999.0,'11111222,11111222,99999999' 
TABS,ioos:station:wmo:42048:1,2012-06-02T06:00:00Z,27.9396,-96.8429,2.0,10.1784451,10.52564487,-99999.0,'11111222,11111222,99999999' 
TABS,ioos:station:wmo:42048:1,2012-06-02T06:30:00Z,27.9396,-96.8429,2.0,26.88013118,11.39070235,-99999.0,'11111222,11111222,99999999' 
TABS,ioos:station:wmo:42048:1,2012-06-02T07:00:00Z,27.9396,-96.8429,2.0,41.04615971,12.71576187,-99999.0,'11111222,11111222,99999999' 
TABS,ioos:station:wmo:42048:1,2012-06-02T07:30:00Z,27.9396,-96.8429,2.0,26.95579887,12.46413254,-99999.0,'11111222,11111222,99999999' 
TABS,ioos:station:wmo:42048:1,2012-06-02T08:00:00Z,27.9396,-96.8429,2.0,35.21078833,7.943330536,-99999.0,'11133222,11111222,99999999' 
TABS,ioos:station:wmo:42048:1,2012-06-02T08:30:00Z,27.9396,-96.8429,2.0,33.34723641,7.876883902,-99999.0,'11133222,11111222,99999999' 
TABS,ioos:station:wmo:42048:1,2012-06-02T09:00:00Z,27.9396,-96.8429,2.0,43.23019154,10.76022769,-99999.0,'11111222,11111222,99999999' 
TABS,ioos:station:wmo:42048:1,2012-06-02T09:30:00Z,27.9396,-96.8429,2.0,37.11997707,12.37811779,-99999.0,'11111222,11111222,99999999' 
TABS,ioos:station:wmo:42048:1,2012-06-02T10:00:00Z,27.9396,-96.8429,2.0,41.03085105,12.15603965,-99999.0,'11111222,11111222,99999999' 
TABS,ioos:station:wmo:42048:1,2012-06-02T10:30:00Z,27.9396,-96.8429,2.0,43.829604,12.11526723,-99999.0,'11111222,11111222,99999999' 
TABS,ioos:station:wmo:42048:1,2012-06-02T11:00:00Z,27.9396,-96.8429,2.0,66.56044585,11.23730395,-99999.0,'11111222,11111222,99999999' 
TABS,ioos:station:wmo:42048:1,2012-06-02T11:30:00Z,27.9396,-96.8429,2.0,52.99700949,12.04603254,-99999.0,'11111222,11111222,99999999' 
TABS,ioos:station:wmo:42048:1,2012-06-02T12:00:00Z,27.9396,-96.8429,2.0,59.56583541,14.84555152,-99999.0,'11111222,11111222,99999999' 
TABS,ioos:station:wmo:42048:1,2012-06-02T12:30:00Z,27.9396,-96.8429,2.0,49.14864808,17.88717138,-99999.0,'11111222,11111222,99999999' 
TABS,ioos:station:wmo:42048:1,2012-06-02T13:00:00Z,27.9396,-96.8429,2.0,56.74247246,12.1260917,-99999.0,'11111222,11111222,99999999' 
TABS,ioos:station:wmo:42048:1,2012-06-02T13:30:00Z,27.9396,-96.8429,2.0,50.68397909,21.13325815,-99999.0,'11111222,11111222,99999999' 
TABS,ioos:station:wmo:42048:1,2012-06-02T14:00:00Z,27.9396,-96.8429,2.0,63.403277,16.14888541,-99999.0,'11111222,11111222,99999999' 
TABS,ioos:station:wmo:42048:1,2012-06-02T14:30:00Z,27.9396,-96.8429,2.0,56.82262837,17.36003744,-99999.0,'11111222,11111222,99999999' 
TABS,ioos:station:wmo:42048:1,2012-06-02T15:00:00Z,27.9396,-96.8429,2.0,62.76388426,14.50860434,-99999.0,'11111222,11111222,99999999' 
TABS,ioos:station:wmo:42048:1,2012-06-02T15:30:00Z,27.9396,-96.8429,2.0,54.41145496,16.99424903,-99999.0,'11111222,11111222,99999999' 
TABS,ioos:station:wmo:42048:1,2012-06-02T16:00:00Z,27.9396,-96.8429,2.0,51.40723762,14.70064624,-99999.0,'11111222,11111222,99999999' 
TABS,ioos:station:wmo:42048:1,2012-06-02T16:30:00Z,27.9396,-96.8429,2.0,59.55613735,12.0980081,-99999.0,'11111222,11111222,99999999' 
TABS,ioos:station:wmo:42048:1,2012-06-02T17:00:00Z,27.9396,-96.8429,2.0,60.26270441,9.455167899,-99999.0,'11133222,11111222,99999999' 
TABS,ioos:station:wmo:42048:1,2012-06-02T17:30:00Z,27.9396,-96.8429,2.0,74.62378471,12.03063174,-99999.0,'11111222,11111222,99999999' 
TABS,ioos:station:wmo:42048:1,2012-06-02T18:00:00Z,27.9396,-96.8429,2.0,77.84342193,15.52820981,-99999.0,'11111222,11111222,99999999' 
TABS,ioos:station:wmo:42048:1,2012-06-02T18:30:00Z,27.9396,-96.8429,2.0,63.94735428,14.50371677,-99999.0,'11111222,11111222,99999999' 
TABS,ioos:station:wmo:42048:1,2012-06-02T19:00:00Z,27.9396,-96.8429,2.0,60.15766822,13.84601748,-99999.0,'11111222,11111222,99999999' 
TABS,ioos:station:wmo:42048:1,2012-06-02T19:30:00Z,27.9396,-96.8429,2.0,65.99733393,15.9054016,-99999.0,'11111222,11111222,99999999' 
TABS,ioos:station:wmo:42048:1,2012-06-02T20:00:00Z,27.9396,-96.8429,2.0,56.97620967,15.02784416,-99999.0,'11111222,11111222,99999999' 
TABS,ioos:station:wmo:42048:1,2012-06-02T20:30:00Z,27.9396,-96.8429,2.0,40.82179293,14.94553445,-99999.0,'11111222,11111222,99999999' 
TABS,ioos:station:wmo:42048:1,2012-06-02T21:00:00Z,27.9396,-96.8429,2.0,50.16455826,14.68967324,-99999.0,'11111222,11111222,99999999' 
TABS,ioos:station:wmo:42048:1,2012-06-02T21:30:00Z,27.9396,-96.8429,2.0,62.93409705,14.83464189,-99999.0,'11111222,11111222,99999999' 
TABS,ioos:station:wmo:42048:1,2012-06-02T22:00:00Z,27.9396,-96.8429,2.0,54.02769707,12.25750382,-99999.0,'11111222,11111222,99999999' 
TABS,ioos:station:wmo:42048:1,2012-06-02T22:30:00Z,27.9396,-96.8429,2.0,39.66028312,12.61295366,-99999.0,'11111222,11111222,99999999' 
TABS,ioos:station:wmo:42048:1,2012-06-02T23:00:00Z,27.9396,-96.8429,2.0,37.49163102,10.87664011,-99999.0,'11111222,11111222,99999999' 
TABS,ioos:station:wmo:42048:1,2012-06-02T23:30:00Z,27.9396,-96.8429,2.0,21.50410362,6.438144143,-99999.0,'11133222,11111222,99999999' 
TABS,ioos:station:wmo:42048:1,2012-06-03T00:00:00Z,27.9396,-96.8429,2.0,26.76158485,5.219013317,-99999.0,'11133222,11111222,99999999' 
TABS,ioos:station:wmo:42048:1,2012-06-03T00:30:00Z,27.9396,-96.8429,2.0,14.92622193,6.871862921,-99999.0,'11133222,11111222,99999999' 
TABS,ioos:station:wmo:42048:1,2012-06-03T01:00:00Z,27.9396,-96.8429,2.0,28.45190325,9.508443616,-99999.0,'11133222,11111222,99999999' 
TABS,ioos:station:wmo:42048:1,2012-06-03T01:30:00Z,27.9396,-96.8429,2.0,58.18251621,6.790382905,-99999.0,'11133222,11111222,99999999' 
TABS,ioos:station:wmo:42048:1,2012-06-03T02:00:00Z,27.9396,-96.8429,2.0,65.86519801,1.687512963,-99999.0,'11133222,11111222,99999999' 
TABS,ioos:station:wmo:42048:1,2012-06-03T02:30:00Z,27.9396,-96.8429,2.0,6.550921611,8.414939097,-99999.0,'11133222,11111222,99999999' 
TABS,ioos:station:wmo:42048:1,2012-06-03T03:00:00Z,27.9396,-96.8429,2.0,87.78606469,3.882898402,-99999.0,'11133222,11111222,99999999' 
TABS,ioos:station:wmo:42048:1,2012-06-03T03:30:00Z,27.9396,-96.8429,2.0,38.35567285,4.705581792,-99999.0,'11133222,11111222,99999999' 
TABS,ioos:station:wmo:42048:1,2012-06-03T04:00:00Z,27.9396,-96.8429,2.0,49.46627495,6.447177677,-99999.0,'11133222,11111222,99999999' 
TABS,ioos:station:wmo:42048:1,2012-06-03T04:30:00Z,27.9396,-96.8429,2.0,38.18653313,6.615746368,-99999.0,'11133222,11111222,99999999' 
TABS,ioos:station:wmo:42048:1,2012-06-03T05:00:00Z,27.9396,-96.8429,2.0,23.20599475,10.3797736,-99999.0,'11111222,11111222,99999999' 
TABS,ioos:station:wmo:42048:1,2012-06-03T05:30:00Z,27.9396,-96.8429,2.0,43.67046439,7.313453357,-99999.0,'11133222,11111222,99999999' 
TABS,ioos:station:wmo:42048:1,2012-06-03T06:00:00Z,27.9396,-96.8429,2.0,23.94280419,11.7292796,-99999.0,'11111222,11111222,99999999' 
TABS,ioos:station:wmo:42048:1,2012-06-03T06:30:00Z,27.9396,-96.8429,2.0,26.37587135,10.82710026,-99999.0,'11111222,11111222,99999999' 
TABS,ioos:station:wmo:42048:1,2012-06-03T07:00:00Z,27.9396,-96.8429,2.0,21.24134043,12.72445284,-99999.0,'11111222,11111222,99999999' 
TABS,ioos:station:wmo:42048:1,2012-06-03T07:30:00Z,27.9396,-96.8429,2.0,35.89612546,12.8258528,-99999.0,'11111222,11111222,99999999' 
TABS,ioos:station:wmo:42048:1,2012-06-03T08:00:00Z,27.9396,-96.8429,2.0,31.96147914,15.16963414,-99999.0,'11111222,11111222,99999999' 
TABS,ioos:station:wmo:42048:1,2012-06-03T08:30:00Z,27.9396,-96.8429,2.0,49.81773732,9.345613945,-99999.0,'11133222,11111222,99999999' 
TABS,ioos:station:wmo:42048:1,2012-06-03T09:00:00Z,27.9396,-96.8429,2.0,37.88864101,7.425173399,-99999.0,'11133222,11111222,99999999' 
TABS,ioos:station:wmo:42048:1,2012-06-03T09:30:00Z,27.9396,-96.8429,2.0,36.00248786,13.47354445,-99999.0,'11111222,11111222,99999999' 
TABS,ioos:station:wmo:42048:1,2012-06-03T10:00:00Z,27.9396,-96.8429,2.0,38.46798382,11.18835108,-99999.0,'11111222,11111222,99999999' 
TABS,ioos:station:wmo:42048:1,2012-06-03T10:30:00Z,27.9396,-96.8429,2.0,51.07553112,5.74569404,-99999.0,'11133222,11111222,99999999' 
TABS,ioos:station:wmo:42048:1,2012-06-03T11:00:00Z,27.9396,-96.8429,2.0,13.30286625,14.77648131,-99999.0,'11111222,11111222,99999999' 
TABS,ioos:station:wmo:42048:1,2012-06-03T11:30:00Z,27.9396,-96.8429,2.0,39.64992733,8.948530606,-99999.0,'11133222,11111222,99999999' 
TABS,ioos:station:wmo:42048:1,2012-06-03T12:00:00Z,27.9396,-96.8429,2.0,43.1002937,13.01084548,-99999.0,'11111222,11111222,99999999' 
TABS,ioos:station:wmo:42048:1,2012-06-03T12:30:00Z,27.9396,-96.8429,2.0,54.48752837,13.25571952,-99999.0,'11111222,11111222,99999999' 
TABS,ioos:station:wmo:42048:1,2012-06-03T13:00:00Z,27.9396,-96.8429,2.0,33.56743553,9.061048504,-99999.0,'11133222,11111222,99999999' 
TABS,ioos:station:wmo:42048:1,2012-06-03T13:30:00Z,27.9396,-96.8429,2.0,48.59919212,7.772290525,-99999.0,'11133222,11111222,99999999' 
TABS,ioos:station:wmo:42048:1,2012-06-03T14:00:00Z,27.9396,-96.8429,2.0,33.07939457,9.105921151,-99999.0,'11133222,11111222,99999999' 
TABS,ioos:station:wmo:42048:1,2012-06-03T14:30:00Z,27.9396,-96.8429,2.0,44.67558962,11.23610698,-99999.0,'11111222,11111222,99999999' 
TABS,ioos:station:wmo:42048:1,2012-06-03T15:00:00Z,27.9396,-96.8429,2.0,20.5793169,8.705521237,-99999.0,'11133222,11111222,99999999' 
TABS,ioos:station:wmo:42048:1,2012-06-03T15:30:00Z,27.9396,-96.8429,2.0,27.43513162,6.185677004,-99999.0,'11133222,11111222,99999999' 
TABS,ioos:station:wmo:42048:1,2012-06-03T16:00:00Z,27.9396,-96.8429,2.0,35.02983093,9.965139236,-99999.0,'11133222,11111222,99999999' 
TABS,ioos:station:wmo:42048:1,2012-06-03T16:30:00Z,27.9396,-96.8429,2.0,35.65020026,7.703745842,-99999.0,'11133222,11111222,99999999' 
TABS,ioos:station:wmo:42048:1,2012-06-03T17:00:00Z,27.9396,-96.8429,2.0,52.12510492,8.551315688,-99999.0,'11133222,11111222,99999999' 
TABS,ioos:station:wmo:42048:1,2012-06-03T17:30:00Z,27.9396,-96.8429,2.0,20.32754074,4.69221696,-99999.0,'11133222,11111222,99999999' 
TABS,ioos:station:wmo:42048:1,2012-06-03T18:00:00Z,27.9396,-96.8429,2.0,28.10641455,5.985883393,-99999.0,'11133222,11111222,99999999' 
TABS,ioos:station:wmo:42048:1,2012-06-03T18:30:00Z,27.9396,-96.8429,2.0,28.66160823,5.379107733,-99999.0,'11133222,11111222,99999999' 
TABS,ioos:station:wmo:42048:1,2012-06-03T19:00:00Z,27.9396,-96.8429,2.0,26.22211592,7.46860094,-99999.0,'11133222,11111222,99999999' 
TABS,ioos:station:wmo:42048:1,2012-06-03T19:30:00Z,27.9396,-96.8429,2.0,28.59787793,7.186772572,-99999.0,'11133222,11111222,99999999' 
TABS,ioos:station:wmo:42048:1,2012-06-03T20:00:00Z,27.9396,-96.8429,2.0,29.37193955,6.667008325,-99999.0,'11133222,11111222,99999999' 
TABS,ioos:station:wmo:42048:1,2012-06-03T20:30:00Z,27.9396,-96.8429,2.0,48.25943488,3.1092282,-99999.0,'11133222,11111222,99999999' 
TABS,ioos:station:wmo:42048:1,2012-06-03T21:00:00Z,27.9396,-96.8429,2.0,10.74877933,3.002682134,-99999.0,'11133222,11111222,99999999' 
TABS,ioos:station:wmo:42048:1,2012-06-03T21:30:00Z,27.9396,-96.8429,2.0,356.6679815,6.88163498,-99999.0,'11133222,11111222,99999999' 
TABS,ioos:station:wmo:42048:1,2012-06-03T22:00:00Z,27.9396,-96.8429,2.0,26.80467835,8.559742987,-99999.0,'11133222,11111222,99999999' 
TABS,ioos:station:wmo:42048:1,2012-06-03T22:30:00Z,27.9396,-96.8429,2.0,26.34789722,3.537484982,-99999.0,'11133222,11111222,99999999' 
TABS,ioos:station:wmo:42048:1,2012-06-03T23:00:00Z,27.9396,-96.8429,2.0,338.8390001,2.991738625,-99999.0,'11133222,11111222,99999999' 
TABS,ioos:station:wmo:42048:1,2012-06-03T23:30:00Z,27.9396,-96.8429,2.0,53.14613504,7.186000278,-99999.0,'11133222,11111222,99999999' 
TABS,ioos:station:wmo:42048:1,2012-06-04T00:00:00Z,27.9396,-96.8429,2.0,17.60915491,2.413068586,-99999.0,'11133222,11111222,99999999' 
TABS,ioos:station:wmo:42048:1,2012-06-04T00:30:00Z,27.9396,-96.8429,2.0,60.17594122,4.483859944,-99999.0,'11133222,11111222,99999999' 
TABS,ioos:station:wmo:42048:1,2012-06-04T01:00:00Z,27.9396,-96.8429,2.0,6.143796152,2.89663598,-99999.0,'11133222,11111222,99999999' 
TABS,ioos:station:wmo:42048:1,2012-06-04T01:30:00Z,27.9396,-96.8429,2.0,350.989522,3.128609915,-99999.0,'11133222,11111222,99999999' 
TABS,ioos:station:wmo:42048:1,2012-06-04T02:00:00Z,27.9396,-96.8429,2.0,313.4211365,2.822428033,-99999.0,'11133222,11111222,99999999' 
TABS,ioos:station:wmo:42048:1,2012-06-04T02:30:00Z,27.9396,-96.8429,2.0,16.98122411,3.115846594,-99999.0,'11133222,11111222,99999999' 
TABS,ioos:station:wmo:42048:1,2012-06-04T03:00:00Z,27.9396,-96.8429,2.0,353.5893854,4.478001787,-99999.0,'11133222,11111222,99999999' 
TABS,ioos:station:wmo:42048:1,2012-06-04T03:30:00Z,27.9396,-96.8429,2.0,357.4683788,2.942872746,-99999.0,'11133222,11111222,99999999' 
TABS,ioos:station:wmo:42048:1,2012-06-04T04:00:00Z,27.9396,-96.8429,2.0,271.4090464,1.220368797,-99999.0,'11133222,11111222,99999999' 
TABS,ioos:station:wmo:42048:1,2012-06-04T04:30:00Z,27.9396,-96.8429,2.0,60.39361367,5.647317947,-99999.0,'11133222,11111222,99999999' 
TABS,ioos:station:wmo:42048:1,2012-06-04T05:00:00Z,27.9396,-96.8429,2.0,44.34156359,1.84567061,-99999.0,'11133222,11111222,99999999' 
TABS,ioos:station:wmo:42048:1,2012-06-04T05:30:00Z,27.9396,-96.8429,2.0,23.91101021,3.380088756,-99999.0,'11133222,11111222,99999999' 
TABS,ioos:station:wmo:42048:1,2012-06-04T06:00:00Z,27.9396,-96.8429,2.0,72.64601594,3.687872015,-99999.0,'11133222,11111222,99999999' 
TABS,ioos:station:wmo:42048:1,2012-06-04T06:30:00Z,27.9396,-96.8429,2.0,45.96644617,2.934910561,-99999.0,'11133222,11111222,99999999' 
TABS,ioos:station:wmo:42048:1,2012-06-04T07:00:00Z,27.9396,-96.8429,2.0,77.79090879,1.749571376,-99999.0,'11133222,11111222,99999999' 
TABS,ioos:station:wmo:42048:1,2012-06-04T07:30:00Z,27.9396,-96.8429,2.0,47.46821737,1.642010962,-99999.0,'11133222,11111222,99999999' 
TABS,ioos:station:wmo:42048:1,2012-06-04T08:00:00Z,27.9396,-96.8429,2.0,49.94884538,4.18044256,-99999.0,'11133222,11111222,99999999' 
TABS,ioos:station:wmo:42048:1,2012-06-04T08:30:00Z,27.9396,-96.8429,2.0,48.72797994,7.504138858,-99999.0,'11133222,11111222,99999999' 
TABS,ioos:station:wmo:42048:1,2012-06-04T09:00:00Z,27.9396,-96.8429,2.0,127.7329574,2.124241041,-99999.0,'11133222,11111222,99999999' 
TABS,ioos:station:wmo:42048:1,2012-06-04T09:30:00Z,27.9396,-96.8429,2.0,358.1526045,2.791451235,-99999.0,'11133222,11111222,99999999' 
TABS,ioos:station:wmo:42048:1,2012-06-04T10:00:00Z,27.9396,-96.8429,2.0,50.65957384,7.887331615,-99999.0,'11133222,11111222,99999999' 
TABS,ioos:station:wmo:42048:1,2012-06-04T10:30:00Z,27.9396,-96.8429,2.0,52.62574504,8.632334563,-99999.0,'11133222,11111222,99999999' 
TABS,ioos:station:wmo:42048:1,2012-06-04T11:00:00Z,27.9396,-96.8429,2.0,73.03389157,4.934774564,-99999.0,'11133222,11111222,99999999' 
TABS,ioos:station:wmo:42048:1,2012-06-04T11:30:00Z,27.9396,-96.8429,2.0,27.1541208,3.045685473,-99999.0,'11133222,11111222,99999999' 
TABS,ioos:station:wmo:42048:1,2012-06-04T12:00:00Z,27.9396,-96.8429,2.0,45.66437281,4.879364713,-99999.0,'11133222,11111222,99999999' 
TABS,ioos:station:wmo:42048:1,2012-06-04T12:30:00Z,27.9396,-96.8429,2.0,41.28023676,9.155107864,-99999.0,'11133222,11111222,99999999' 
TABS,ioos:station:wmo:42048:1,2012-06-04T13:00:00Z,27.9396,-96.8429,2.0,31.63218495,7.64592702,-99999.0,'11133222,11111222,99999999' 
TABS,ioos:station:wmo:42048:1,2012-06-04T13:30:00Z,27.9396,-96.8429,2.0,48.81417114,2.126029163,-99999.0,'11133222,11111222,99999999' 
TABS,ioos:station:wmo:42048:1,2012-06-04T14:00:00Z,27.9396,-96.8429,2.0,63.9491156,4.485732939,-99999.0,'11133222,11111222,99999999' 
TABS,ioos:station:wmo:42048:1,2012-06-04T14:30:00Z,27.9396,-96.8429,2.0,37.51273454,2.496157046,-99999.0,'11133222,11111222,99999999' 
TABS,ioos:station:wmo:42048:1,2012-06-04T15:00:00Z,27.9396,-96.8429,2.0,55.75644736,7.463839495,-99999.0,'11133222,11111222,99999999' 
TABS,ioos:station:wmo:42048:1,2012-06-04T15:30:00Z,27.9396,-96.8429,2.0,44.36924774,7.064424959,-99999.0,'11133222,11111222,99999999' 
TABS,ioos:station:wmo:42048:1,2012-06-04T16:00:00Z,27.9396,-96.8429,2.0,77.68153023,6.796477029,-99999.0,'11133222,11111222,99999999' 